Weather History for Parsons, KS

Change the Weather History Date:

Friday, October 4, 2013

  Actual Average Record
Temperature  
Mean Temperature 79 °F -  
Max Temperature 87 °F 77 °F 95 °F (1963)
Min Temperature 66 °F 52 °F 34 °F (2014)
Cooling Degree Days 14    
Growing Degree Days 29 (Base 50)    
Moisture  
Dew Point 67 °F    
Average Humidity 72    
Maximum Humidity 88    
Minimum Humidity 51    
Precipitation  
Precipitation 0.05 in - - ()
Sea Level Pressure  
Sea Level Pressure 29.83 in    
Wind  
Wind Speed 10 mph (South)    
Max Wind Speed 21 mph    
Max Gust Speed 41 mph    
Visibility 10 miles    
Events Rain , Thunderstorm    
Averages and records for this station are not official NWS values.
T = Trace of Precipitation, MM = Missing Value Source: NWS Daily Summary

Daily Weather History Graph

Daily Weather History Graph

Search for Another Location

Airport:

Trip Planner

Search our weather history database for the weather conditions in past years. The results will help you decide how hot, cold, wet, or windy it might be!

Date:

Astronomy

Oct. 04, 2013 Rise Set
Actual Time 7:20 AM CDT 7:00 PM CDT
Civil Twilight 6:54 AM CDT 7:26 PM CDT
Nautical Twilight 6:24 AM CDT 7:56 PM CDT
Astronomical Twilight 5:53 AM CDT 8:26 PM CDT
Moon 6:56 AM CDT (10/4) 6:44 PM CDT (10/4)
Length of Visible Light 12h 32m
Length of Day
11h 40m
Waning Crescent, 0% of the Moon is Illuminated
Oct 4
Waning Crescent
Oct 4
New
Oct 11
First Quarter
Oct 18
Full
Oct 26
Last Quarter

Hourly Weather History & Observations

Time (CDT) Temp. Heat Index Dew Point Humidity Pressure Visibility Wind Dir Wind Speed Gust Speed Precip Events Conditions
12:52 AM 73.0 °F - 66.9 °F 81% 29.81 in 10.0 mi South 9.2 mph - N/A   Clear
1:52 AM 73.0 °F - 68.0 °F 84% 29.81 in 10.0 mi South 6.9 mph - N/A   Clear
2:52 AM 73.0 °F - 68.0 °F 84% 29.81 in 10.0 mi South 8.1 mph - N/A   Clear
3:52 AM 73.0 °F - 66.9 °F 81% 29.80 in 10.0 mi South 9.2 mph - N/A   Clear
4:52 AM 72.0 °F - 66.9 °F 84% 29.80 in 10.0 mi SSE 8.1 mph - N/A   Clear
5:52 AM 72.0 °F - 68.0 °F 87% 29.81 in 10.0 mi South 6.9 mph 18.4 mph N/A   Clear
6:52 AM 72.0 °F - 68.0 °F 87% 29.82 in 10.0 mi SSE 8.1 mph 16.1 mph N/A   Clear
7:52 AM 73.0 °F - 68.0 °F 84% 29.83 in 10.0 mi South 8.1 mph - N/A   Clear
8:52 AM 75.9 °F - 69.1 °F 79% 29.84 in 10.0 mi South 10.4 mph 21.9 mph N/A   Clear
9:52 AM 79.0 °F - 69.1 °F 72% 29.83 in 10.0 mi South 18.4 mph 27.6 mph N/A   Clear
10:52 AM 81.0 °F 84.1 °F 69.1 °F 67% 29.83 in 10.0 mi South 18.4 mph 28.8 mph N/A   Clear
11:52 AM 81.0 °F 83.8 °F 68.0 °F 65% 29.83 in 10.0 mi South 16.1 mph 27.6 mph N/A   Clear
12:52 PM 82.0 °F 85.5 °F 69.1 °F 65% 29.83 in 10.0 mi South 11.5 mph 26.5 mph N/A   Clear
1:52 PM 84.9 °F 88.2 °F 68.0 °F 57% 29.80 in 10.0 mi South 12.7 mph 20.7 mph N/A   Partly Cloudy
2:52 PM 84.9 °F 87.6 °F 66.9 °F 55% 29.78 in 10.0 mi South 13.8 mph 20.7 mph N/A   Partly Cloudy
3:52 PM 84.9 °F 87.1 °F 66.0 °F 53% 29.78 in 10.0 mi South 16.1 mph 23.0 mph N/A   Clear
4:52 PM 86.0 °F 88.2 °F 66.0 °F 51% 29.78 in 10.0 mi South 13.8 mph 23.0 mph N/A   Clear
5:52 PM 84.0 °F 86.3 °F 66.0 °F 55% 29.77 in 10.0 mi South 13.8 mph 23.0 mph N/A   Clear
6:52 PM 81.0 °F 83.3 °F 66.9 °F 62% 29.77 in 10.0 mi SSE 5.8 mph 19.6 mph N/A   Clear
7:52 PM 79.0 °F - 66.9 °F 66% 29.81 in 10.0 mi SSE 8.1 mph - N/A   Clear
8:52 PM 77.0 °F - 66.0 °F 69% 29.82 in 10.0 mi South 5.8 mph - N/A   Partly Cloudy
9:52 PM 75.9 °F - 66.9 °F 74% 29.87 in 10.0 mi WSW 4.6 mph - N/A   Scattered Clouds
10:52 PM 73.9 °F - 68.0 °F 82% 29.88 in 10.0 mi Calm Calm - N/A   Mostly Cloudy
11:45 PM 73.4 °F - 64.4 °F 73% 29.93 in 10.0 mi North 3.5 mph - N/A Thunderstorm Thunderstorm
11:52 PM 72.0 °F - 63.0 °F 73% 29.98 in 5.0 mi West 20.7 mph 41.4 mph 0.05 in Thunderstorm Unknown
11:58 PM 66.2 °F - 62.6 °F 88% 29.97 in 1.8 mi WNW 10.4 mph 41.4 mph 0.10 in Rain , Thunderstorm Heavy Thunderstorms and Rain